This is the latest recevied weather packets stored in our database for station/object W0RMT-13. If no packets are shown the sender has not sent any weather packets the latest 10 day(s).
| Time | Temp. | Humidity | Pressure | Rain* | Wind** | Luminosity | Snow |
|---|---|---|---|---|---|---|---|
| 1777592798 | 8.33° C | 62% | 1019 hPa | 0 mm | - | 57 W/m² | - |
| 1777592128 | 8.33° C | 63% | 1019 hPa | 0 mm | - | 54 W/m² | - |
| 1777591463 | 8.33° C | 61% | 1019 hPa | 0 mm | - | 98 W/m² | - |
| 1777590828 | 8.33° C | 61% | 1019 hPa | 0 mm | - | 122 W/m² | - |
| 1777590179 | 7.78° C | 62% | 1019 hPa | 0 mm | - | 117 W/m² | - |
| 1777589555 | 7.78° C | 63% | 1019 hPa | 0 mm | - | 115 W/m² | - |
| 1777588921 | 7.78° C | 64% | 1019 hPa | 0 mm | - | 96 W/m² | - |
| 1777588303 | 7.78° C | 64% | 1019.4 hPa | 0 mm | - | 74 W/m² | - |
| 1777587688 | 7.78° C | 66% | 1019.4 hPa | 0 mm | - | 64 W/m² | - |
| 1777587122 | 8.33° C | 65% | 1019 hPa | 0 mm | - | 48 W/m² | - |
| 1777586417 | 8.89° C | 60% | 1019.4 hPa | 0 mm | - | 57 W/m² | - |
| 1777585735 | 8.89° C | 58% | 1019 hPa | 0 mm | - | 130 W/m² | - |
| 1777585127 | 8.89° C | 58% | 1019 hPa | 0 mm | - | 275 W/m² | - |
| 1777584470 | 8.33° C | 59% | 1019.4 hPa | 0 mm | - | 296 W/m² | - |
| 1777583818 | 8.33° C | 63% | 1019.8 hPa | 0 mm | - | 236 W/m² | - |
| 1777583170 | 8.33° C | 59% | 1019.8 hPa | 0 mm | - | 194 W/m² | - |
| 1777582546 | 8.33° C | 62% | 1019.4 hPa | 0 mm | - | 164 W/m² | - |
| 1777581928 | 8.33° C | 59% | 1019.4 hPa | 0 mm | - | 174 W/m² | - |
| 1777581213 | 7.78° C | 57% | 1019.4 hPa | 0 mm | - | 144 W/m² | - |
| 1777580528 | 8.33° C | 58% | 1019.8 hPa | 0 mm | - | 139 W/m² | - |
| 1777579885 | 8.33° C | 59% | 1019.8 hPa | 0 mm | - | 125 W/m² | - |
| 1777579282 | 8.89° C | 58% | 1019.4 hPa | 0 mm | - | 101 W/m² | - |
| 1777578665 | 8.89° C | 58% | 1019.4 hPa | 0 mm | - | 155 W/m² | - |
| 1777577968 | 8.33° C | 58% | 1019.8 hPa | 0 mm | - | 230 W/m² | - |
| 1777577353 | 8.33° C | 57% | 1019.8 hPa | 0 mm | - | 216 W/m² | - |
* Rain latest hour (hover to see other rain measurements)
** Current wind speed in m/s (hover to see current wind gust speed)